• în România
  • Lista ţărilor
  • Pe 7 zile
  • Temperatura apei
  • Hartă satelitară
  • Meteo pe hartă
  • Widget-uri
  • user-avatar
    Intrare

    Meteo pe oră la Kipungo

    Astăzi, 30 Martie, Joi

    Timp Temperatura Precipitaţii Vânt Presiune Umiditate
    00:00 +21°C° 0 mm 1 m/s 653 mmHg 77%
    01:00 +21°C° 0 mm 1 m/s 653 mmHg 77%
    02:00 +21°C° 0 mm 1 m/s 653 mmHg 78%
    03:00 +20°C° 0 mm 1 m/s 653 mmHg 79%
    04:00 +20°C° 0 mm 1 m/s 653 mmHg 80%
    05:00 +20°C° 0 mm 1 m/s 653 mmHg 82%
    06:00 +20°C° 0 mm 1 m/s 653 mmHg 83%
    07:00 +19°C° 0 mm 1 m/s 654 mmHg 84%
    08:00 +21°C° 0 mm 2 m/s 654 mmHg 74%
    09:00 +25°C° 0 mm 3 m/s 655 mmHg 63%
    10:00 +27°C° 0 mm 4 m/s 655 mmHg 53%
    11:00 +28°C° 0 mm 4 m/s 655 mmHg 49%
    12:00 +30°C° 0 mm 3 m/s 655 mmHg 45%
    13:00 +31°C° 0 mm 3 m/s 655 mmHg 41%
    14:00 +31°C° 0,2 mm 3 m/s 654 mmHg 42%
    15:00 +30°C° 0,2 mm 2 m/s 654 mmHg 44%
    16:00 +30°C° 0,2 mm 2 m/s 653 mmHg 46%
    17:00 +27°C° 0,3 mm 2 m/s 653 mmHg 56%
    18:00 +24°C° 0,3 mm 1 m/s 653 mmHg 66%
    19:00 +22°C° 0,3 mm 1 m/s 653 mmHg 77%
    20:00 +21°C° 0,1 mm 1 m/s 653 mmHg 79%
    21:00 +21°C° 0,1 mm 1 m/s 654 mmHg 81%
    22:00 +20°C° 0,1 mm 1 m/s 654 mmHg 83%
    23:00 +20°C° 0 mm 1 m/s 654 mmHg 85%

    Mâine, 31 Martie, Vineri

    Timp Temperatura Precipitaţii Vânt Presiune Umiditate
    00:00 +19°C° 0 mm 1 m/s 653 mmHg 87%
    01:00 +19°C° 0 mm 1 m/s 653 mmHg 89%
    02:00 +19°C° 0 mm 1 m/s 653 mmHg 90%
    03:00 +19°C° 0 mm 1 m/s 653 mmHg 90%
    04:00 +18°C° 0 mm 1 m/s 653 mmHg 91%
    05:00 +19°C° 0 mm 1 m/s 653 mmHg 90%
    06:00 +19°C° 0 mm 1 m/s 654 mmHg 89%
    07:00 +20°C° 0 mm 1 m/s 654 mmHg 88%
    08:00 +21°C° 0 mm 2 m/s 655 mmHg 78%
    09:00 +24°C° 0 mm 3 m/s 655 mmHg 68%
    10:00 +27°C° 0 mm 4 m/s 656 mmHg 57%
    11:00 +28°C° 0,1 mm 4 m/s 656 mmHg 52%
    12:00 +29°C° 0,1 mm 4 m/s 655 mmHg 47%
    13:00 +30°C° 0,1 mm 3 m/s 655 mmHg 42%
    14:00 +30°C° 0,2 mm 3 m/s 654 mmHg 44%
    15:00 +30°C° 0,2 mm 3 m/s 654 mmHg 46%
    16:00 +30°C° 0,2 mm 2 m/s 654 mmHg 48%
    17:00 +27°C° 0,4 mm 2 m/s 653 mmHg 58%
    18:00 +24°C° 0,4 mm 2 m/s 653 mmHg 68%
    19:00 +22°C° 0,4 mm 1 m/s 653 mmHg 78%
    20:00 +21°C° 0,6 mm 1 m/s 653 mmHg 81%
    21:00 +20°C° 0,6 mm 1 m/s 654 mmHg 85%
    22:00 +19°C° 0,6 mm 1 m/s 654 mmHg 88%
    23:00 +19°C° 0,1 mm 1 m/s 654 mmHg 90%

    Poimâine, 1 Aprilie, Sâmbătă

    Timp Temperatura Precipitaţii Vânt Presiune Umiditate
    00:00 +19°C° 0,1 mm 1 m/s 654 mmHg 91%
    01:00 +18°C° 0,1 mm 1 m/s 653 mmHg 92%
    02:00 +18°C° 0 mm 1 m/s 653 mmHg 92%
    03:00 +18°C° 0 mm 1 m/s 653 mmHg 92%
    04:00 +18°C° 0 mm 1 m/s 652 mmHg 93%
    05:00 +18°C° 0 mm 1 m/s 653 mmHg 92%
    06:00 +19°C° 0 mm 1 m/s 654 mmHg 91%
    07:00 +19°C° 0 mm 1 m/s 654 mmHg 90%
    08:00 +21°C° 0 mm 2 m/s 655 mmHg 79%
    09:00 +24°C° 0 mm 2 m/s 656 mmHg 68%
    10:00 +27°C° 0 mm 3 m/s 657 mmHg 57%
    11:00 +28°C° 0 mm 3 m/s 656 mmHg 51%
    12:00 +30°C° 0 mm 3 m/s 656 mmHg 44%
    13:00 +31°C° 0 mm 3 m/s 655 mmHg 38%
    14:00 +31°C° 0,2 mm 3 m/s 655 mmHg 39%
    15:00 +31°C° 0,2 mm 2 m/s 654 mmHg 41%
    16:00 +30°C° 0,2 mm 2 m/s 654 mmHg 42%
    17:00 +27°C° 0,3 mm 1 m/s 653 mmHg 53%
    18:00 +24°C° 0,3 mm 1 m/s 653 mmHg 63%
    19:00 +21°C° 0,3 mm 1 m/s 653 mmHg 73%
    20:00 +21°C° 0 mm 1 m/s 653 mmHg 75%
    21:00 +21°C° 0 mm 1 m/s 654 mmHg 76%
    22:00 +21°C° 0 mm 1 m/s 654 mmHg 77%
    23:00 +20°C° 0 mm 1 m/s 654 mmHg 79%

    2 Aprilie, Duminică

    Timp Temperatura Precipitaţii Vânt Presiune Umiditate
    00:00 +18°C° 0 mm 0 m/s 653 mmHg 80%
    01:00 +17°C° 0 mm 0 m/s 653 mmHg 82%
    02:00 +19°C° 0 mm 1 m/s 653 mmHg 82%
    03:00 +18°C° 0 mm 1 m/s 652 mmHg 83%
    04:00 +16°C° 0 mm 1 m/s 652 mmHg 83%
    05:00 +18°C° 0 mm 1 m/s 652 mmHg 82%
    06:00 +18°C° 0 mm 1 m/s 653 mmHg 81%
    07:00 +19°C° 0 mm 1 m/s 654 mmHg 79%
    08:00 +21°C° 0 mm 2 m/s 655 mmHg 66%
    09:00 +25°C° 0 mm 3 m/s 655 mmHg 53%
    10:00 +28°C° 0 mm 4 m/s 656 mmHg 40%
    11:00 +29°C° 0 mm 3 m/s 656 mmHg 35%
    12:00 +30°C° 0 mm 3 m/s 655 mmHg 30%
    13:00 +31°C° 0 mm 3 m/s 655 mmHg 25%
    14:00 +31°C° 0 mm 3 m/s 655 mmHg 26%
    15:00 +31°C° 0 mm 2 m/s 654 mmHg 26%
    16:00 +31°C° 0 mm 2 m/s 653 mmHg 27%
    17:00 +28°C° 0 mm 2 m/s 653 mmHg 33%
    18:00 +24°C° 0 mm 2 m/s 653 mmHg 39%
    19:00 +20°C° 0 mm 2 m/s 652 mmHg 45%
    20:00 +20°C° 0 mm 2 m/s 652 mmHg 47%
    21:00 +19°C° 0 mm 2 m/s 653 mmHg 48%
    22:00 +18°C° 0 mm 2 m/s 653 mmHg 50%
    23:00 +17°C° 0 mm 2 m/s 652 mmHg 53%

    3 Aprilie, Luni

    Timp Temperatura Precipitaţii Vânt Presiune Umiditate
    00:00 +16°C° 0 mm 1 m/s 652 mmHg 56%
    01:00 +15°C° 0 mm 1 m/s 652 mmHg 59%
    02:00 +15°C° 0 mm 1 m/s 651 mmHg 59%
    03:00 +15°C° 0 mm 1 m/s 651 mmHg 60%
    04:00 +14°C° 0 mm 1 m/s 651 mmHg 61%
    05:00 +15°C° 0 mm 1 m/s 652 mmHg 61%
    06:00 +15°C° 0 mm 1 m/s 652 mmHg 62%
    07:00 +16°C° 0 mm 1 m/s 653 mmHg 62%
    08:00 +20°C° 0 mm 2 m/s 654 mmHg 52%
    09:00 +24°C° 0 mm 3 m/s 655 mmHg 42%
    10:00 +28°C° 0 mm 5 m/s 656 mmHg 32%
    11:00 +29°C° 0 mm 4 m/s 655 mmHg 29%
    12:00 +30°C° 0 mm 4 m/s 655 mmHg 27%
    13:00 +32°C° 0 mm 4 m/s 654 mmHg 25%
    14:00 +31°C° 0 mm 3 m/s 654 mmHg 26%
    15:00 +31°C° 0 mm 3 m/s 654 mmHg 26%
    16:00 +31°C° 0 mm 3 m/s 653 mmHg 27%
    17:00 +28°C° 0 mm 2 m/s 653 mmHg 39%
    18:00 +24°C° 0 mm 2 m/s 652 mmHg 50%
    19:00 +20°C° 0 mm 1 m/s 652 mmHg 61%
    20:00 +20°C° 0 mm 1 m/s 652 mmHg 60%
    21:00 +20°C° 0 mm 1 m/s 652 mmHg 59%
    22:00 +18°C° 0 mm 2 m/s 653 mmHg 58%
    23:00 +18°C° 0 mm 1 m/s 652 mmHg 62%

    4 Aprilie, Marţi

    Timp Temperatura Precipitaţii Vânt Presiune Umiditate
    00:00 +18°C° 0 mm 1 m/s 652 mmHg 66%
    01:00 +16°C° 0 mm 1 m/s 652 mmHg 70%
    02:00 +15°C° 0 mm 1 m/s 652 mmHg 73%
    03:00 +15°C° 0 mm 1 m/s 651 mmHg 75%
    04:00 +14°C° 0 mm 1 m/s 651 mmHg 78%
    05:00 +15°C° 0 mm 1 m/s 652 mmHg 76%
    06:00 +16°C° 0 mm 1 m/s 653 mmHg 73%
    07:00 +18°C° 0 mm 1 m/s 653 mmHg 71%
    08:00 +20°C° 0 mm 2 m/s 654 mmHg 59%
    09:00 +25°C° 0 mm 3 m/s 655 mmHg 47%
    10:00 +28°C° 0 mm 4 m/s 655 mmHg 35%
    11:00 +29°C° 0 mm 4 m/s 655 mmHg 31%
    12:00 +30°C° 0 mm 4 m/s 654 mmHg 28%
    13:00 +31°C° 0 mm 3 m/s 654 mmHg 24%
    14:00 +31°C° 0 mm 3 m/s 653 mmHg 25%
    15:00 +31°C° 0 mm 3 m/s 653 mmHg 25%
    16:00 +31°C° 0 mm 2 m/s 653 mmHg 25%
    17:00 +28°C° 0 mm 2 m/s 652 mmHg 35%
    18:00 +24°C° 0 mm 2 m/s 652 mmHg 45%
    19:00 +20°C° 0 mm 1 m/s 651 mmHg 54%
    20:00 +20°C° 0 mm 1 m/s 651 mmHg 55%
    21:00 +19°C° 0 mm 1 m/s 652 mmHg 55%
    22:00 +18°C° 0 mm 1 m/s 652 mmHg 55%
    23:00 +16°C° 0 mm 1 m/s 651 mmHg 58%
    Arată mai mult